Regional Weather Roundup
Issued by NWS

Home | Current Version | Previous Version | Text Only | Print | Product List | Glossary Off
Versions: 1 2 3 4 5 6 7 8 9 10 11 12 13 14 15 16 17 18 19 20 21 22 23 24 25 26 27 28 29 30 31 32 33 34 35 36 37 38 39 40 41 42 43 44 45 46 47 48 49 50

000
ASUS45 KCYS 130310
RWRWY

WYOMING REGIONAL WEATHER ROUNDUP
NATIONAL WEATHER SERVICE CHEYENNE WY
800 PM MST TUE DEC 12 2017

NOTE:  "FAIR" INDICATES FEW OR NO CLOUDS BELOW 12,000 FEET
WITH NO SIGNIFICANT WEATHER AND/OR OBSTRUCTIONS TO VISIBILITY.

WYZ001-130400-
YELLOWSTONE NATIONAL PARK

CITY           SKY/WX    TMP DP  RH WIND       PRES   REMARKS
LK YELLOWSTONE   N/A     17  14  88 CALM      30.36F
W YELLOWSTONE  NOT AVBL

$$
WYZ002>013-054>058-071-098>099-130400-
NORTHERN WYOMING

CITY           SKY/WX    TMP DP  RH WIND       PRES   REMARKS
JACKSON          N/A     17  12  80 N6        30.38S WCI   9
CODY           FAIR      50   2  14 W10       30.16S
GREYBULL       FAIR      27  16  63 CALM      30.13S
WORLAND        FAIR      24  19  81 CALM      30.13R
SHERIDAN       FAIR      43   9  24 N9        30.08R
BUFFALO        FAIR      51   0  12 N20G25    30.07F
GILLETTE       FAIR      48   9  20 W15       30.03R
HULETT         FAIR      50  14  23 W5        29.99F
NEWCASTLE      FAIR      43  18  36 N15       29.99F

$$
WYZ014>020-022>026-101>103-130400-
CENTRAL WYOMING

CITY           SKY/WX    TMP DP  RH WIND       PRES   REMARKS
BIG PINEY      FAIR      27  -3  27 CALM      30.32F
PINEDALE       FAIR      27   3  36 CALM      30.33F
DUBOIS         FAIR      37  -4  17 NW14      30.25F WCI  29
LANDER         FAIR      34  22  61 W12       30.16S WCI  25
RIVERTON       FAIR      28  18  66 NE6       30.17F WCI  22
CASPER         FAIR      44  17  33 SW18G26   30.11F
DOUGLAS        FAIR      38  21  50 NW13      30.07F WCI  30

$$
WYZ021-027>030-104>119-130400-
SOUTHERN WYOMING

CITY           SKY/WX    TMP DP  RH WIND       PRES   REMARKS
EVANSTON       FAIR      36   9  32 SW9       30.37F WCI  29
FORT BRIDGER   FAIR      39   4  23 W13G18    30.37F WCI  31
ROCK SPRINGS   FAIR      37  -1  20 W14       30.30S WCI  28
DIXON          FAIR      24  14  66 CALM      30.35F
RAWLINS        FAIR      40  15  36 W18G28    30.23F WCI  31
SARATOGA       FAIR      30  16  55 E8        30.28F WCI  23
LARAMIE        FAIR      37   7  28 W12G17    30.21F WCI  29
CHEYENNE       FAIR      46  10  23 W25G32    30.12F
TORRINGTON     FAIR      44  14  29 NW10      30.02F
PINE BLUFFS    FAIR      41   9  26 MISG      30.08F

$$



USA.gov is the U.S. government's official web portal to all federal, state and local government web resources and services.